DW6743 Weather Reports


Display with metric or nautical units.
time (UTC)temp
F
wind
direction
speed
MPH
gust
MPH
rain 1hr
in
rain 24hr
in
rain mn
in
humidity
%
barometer
mb
20260505003305 48 350 17.0 30.0 0.00 3.55 0.00 82 1009.4
20260505003105 48 350 18.0 30.0 0.00 0.04 0.00 81 1009.3
20260505001804 48 354 15.0 24.0 0.00 3.55 0.00 81 1009.3
20260505001559 48 23 18.0 26.0 0.00 0.04 0.00 81 1009.3
20260505001304 49 342 20.0 25.0 0.00 3.56 0.00 82 1009.3
20260505000804 49 343 21.0 25.0 0.00 3.83 0.00 82 1009.3
20260505000112 48 357 21.0 28.0 0.00 0.04 0.00 81 1009.2
20260504234804 49 339 19.0 26.0 0.00 3.84 0.00 82 1009.3
20260504234559 48 340 17.0 25.0 0.00 0.11 0.00 81 1009.3
20260504234304 49 346 17.0 23.0 0.00 3.84 0.00 82 1009.3
20260504233804 49 340 18.0 25.0 0.00 3.85 0.00 82 1009.3
20260504233304 49 337 21.0 26.0 0.00 3.86 0.00 82 1009.3
20260504233106 48 340 16.0 26.0 0.00 0.11 0.00 81 1009.3
20260504231804 49 337 21.0 26.0 0.00 3.95 0.00 82 1009.4
20260504231558 48 340 17.0 25.0 0.00 0.11 0.00 81 1009.2
20260504231304 49 341 16.0 24.0 0.00 3.95 0.00 82 1009.4
20260504230804 49 333 15.0 25.0 0.00 3.96 0.00 82 1009.3
20260504230304 49 338 17.0 25.0 0.00 4.02 0.00 82 1009.4
20260504230057 48 321 15.0 25.0 0.00 0.11 0.00 82 1009.3
20260504224804 49 343 16.0 22.0 0.00 4.04 0.00 82 1009.5
20260504224600 48 332 15.0 25.0 0.00 0.17 0.00 82 1009.4
20260504224304 49 338 14.0 23.0 0.00 4.05 0.00 82 1009.4
20260504223804 49 332 18.0 25.0 0.00 4.06 0.00 82 1009.5
20260504223304 49 347 17.0 26.0 0.00 4.06 0.00 82 1009.5
20260504223058 48 331 17.0 26.0 0.00 0.17 0.00 81 1009.4
20260504221804 49 344 18.0 25.0 0.00 4.10 0.00 82 1009.6
20260504221557 49 336 17.0 26.0 0.00 0.17 0.00 81 1009.5
20260504221304 49 344 20.0 26.0 0.00 4.10 0.00 81 1009.6
20260504220827 49 340 16.0 22.0 0.00 4.10 0.00 81 1009.6
20260504220304 49 341 18.0 25.0 0.00 4.12 0.00 81 1009.7
20260504220115 49 356 18.0 26.0 0.00 0.17 0.00 81 1009.5
20260504214600 49 323 18.0 26.0 0.00 0.18 0.17 81 1009.6
20260504214304 49 341 20.0 26.0 0.00 4.13 0.17 81 1009.6
20260504213102 49 333 17.0 26.0 0.00 0.18 0.17 81 1009.7
20260504211804 49 341 20.0 26.0 0.00 4.14 0.17 80 1009.7
20260504211557 49 350 19.0 27.0 0.00 0.18 0.17 80 1009.7
20260504211304 49 338 20.0 25.0 0.00 4.14 0.17 81 1009.7
20260504210804 50 337 18.0 24.0 0.00 4.14 0.17 80 1009.7
20260504210304 50 339 16.0 25.0 0.00 4.14 0.17 80 1009.6
20260504210059 49 13 18.0 25.0 0.00 0.18 0.17 80 1009.5
20260504204804 50 335 12.0 21.0 0.00 4.14 0.17 80 1009.6
20260504204559 49 331 15.0 21.0 0.00 0.18 0.17 79 1009.5
20260504204304 50 337 14.0 21.0 0.00 4.14 0.17 80 1009.6
20260504203804 50 345 16.0 21.0 0.00 4.14 0.17 79 1009.7
20260504203304 50 334 12.0 22.0 0.00 4.14 0.17 79 1009.7
20260504203057 49 331 12.0 22.0 0.00 0.18 0.17 79 1009.7
20260504201804 50 328 16.0 21.0 0.00 4.15 0.17 78 1009.7
20260504201556 50 337 12.0 20.0 0.00 0.18 0.17 78 1009.7
20260504201304 50 346 13.0 20.0 0.00 4.15 0.17 78 1009.8
20260504200101 50 332 12.0 21.0 0.00 0.18 0.17 77 1009.8
20260504194804 50 340 15.0 20.0 0.00 4.16 0.17 77 1009.8
20260504194556 50 324 12.0 19.0 0.00 0.18 0.17 77 1009.8
20260504194304 50 345 14.0 20.0 0.00 4.17 0.17 77 1009.7
20260504193804 50 326 15.0 18.0 0.00 4.01 0.17 77 1009.8
20260504193304 50 333 14.0 20.0 0.00 4.01 0.17 77 1009.8
20260504193059 50 332 12.0 19.0 0.00 0.18 0.17 76 1009.7
20260504191805 50 339 14.0 20.0 0.00 4.02 0.17 77 1009.7
20260504191600 50 334 16.0 20.0 0.00 0.18 0.17 76 1009.7
20260504191304 51 327 14.0 20.0 0.00 4.02 0.17 76 1009.7
20260504190804 51 331 16.0 20.0 0.00 4.02 0.17 76 1009.6
20260504190304 51 325 16.0 20.0 0.00 3.84 0.17 76 1009.6
20260504190110 50 334 15.0 20.0 0.00 0.18 0.17 76 1009.5
20260504184804 51 329 14.0 21.0 0.00 3.85 0.17 76 1009.5
20260504184614 51 323 16.0 22.0 0.00 0.18 0.17 76 1009.5
20260504184304 51 326 19.0 22.0 0.00 3.86 0.17 76 1009.4
20260504183804 51 331 16.0 20.0 0.00 3.87 0.17 76 1009.4
20260504183107 51 299 11.0 20.0 0.00 0.18 0.17 75 1009.4
20260504181804 52 340 9.0 17.0 0.00 3.69 0.17 76 1009.4
20260504181558 51 320 13.0 20.0 0.00 0.18 0.17 76 1009.4
20260504181304 52 349 14.0 20.0 0.00 3.70 0.17 76 1009.3
20260504180804 52 345 16.0 20.0 0.00 3.70 0.17 76 1009.4
20260504180304 52 342 10.0 18.0 0.00 3.70 0.17 76 1009.3
20260504180056 52 355 13.0 18.0 0.00 0.18 0.17 75 1009.3
20260504174804 53 335 10.0 17.0 0.00 3.71 0.17 76 1009.1
20260504174606 52 345 9.0 17.0 0.00 0.18 0.17 75 1009.1
20260504174304 53 332 13.0 16.0 0.00 3.71 0.17 76 1009.2
20260504173804 53 331 13.0 16.0 0.00 3.71 0.17 76 1009.2
20260504173104 53 337 10.0 17.0 0.00 0.18 0.17 75 1009.1
20260504171804 53 333 12.0 18.0 0.00 3.71 0.17 75 1009.1
20260504171557 53 345 14.0 18.0 0.00 0.18 0.17 75 1009.1
20260504171304 54 342 13.0 17.0 0.00 3.54 0.17 75 1009.0
20260504170804 54 349 10.0 16.0 0.00 3.54 0.17 75 1009.1
20260504170304 54 333 6.0 15.0 0.00 3.54 0.17 76 1009.0
20260504170105 54 340 6.0 11.0 0.00 0.18 0.17 75 1009.0
20260504160304 55 358 12.0 16.0 0.00 3.54 0.17 67 1009.1
20260504150804 54 356 10.0 18.0 0.00 3.54 0.17 69 1009.2
20260504150304 55 1 11.0 17.0 0.00 3.54 0.17 69 1009.2
20260504141304 54 9 12.0 15.0 0.00 3.55 0.17 71 1009.0
20260504140804 54 13 9.0 12.0 0.00 3.55 0.17 73 1009.0
20260504140304 53 21 10.0 14.0 0.00 3.55 0.17 73 1008.9
20260504130804 53 340 12.0 15.0 0.00 3.04 0.17 77 1009.0
20260504130304 53 340 13.0 16.0 0.00 3.04 0.17 77 1008.9
20260504120304 52 339 9.0 14.0 0.00 3.04 0.17 78 1008.3
20260504110304 50 18 7.0 15.0 0.00 3.05 0.17 82 1008.0
20260504100304 51 343 12.0 20.0 0.00 2.90 0.17 82 1007.7
20260504090105 50 314 10.0 17.0 0.00 0.18 0.17 81 1007.2
20260504081804 51 331 13.0 17.0 0.00 2.74 0.17 82 1006.9
20260504081557 50 329 13.0 17.0 0.00 0.18 0.17 81 1006.8
20260504080804 51 333 13.0 16.0 0.00 2.75 0.17 82 1006.6
20260504080304 51 314 11.0 16.0 0.17 2.57 0.00 82 1006.5
20260504080110 51 292 13.0 16.0 0.00 0.18 0.17 82 1006.4
20260504070306 51 299 12.0 15.0 0.00 2.40 0.17 84 1006.0
20260504050304 49 296 6.0 8.0 0.00 2.23 0.17 87 1005.4
20260504044804 49 298 5.0 8.0 0.00 2.24 0.17 87 1005.3
20260504044603 49 315 4.0 8.0 0.00 0.18 0.17 87 1005.3
20260504044304 49 300 4.0 6.0 0.00 2.24 0.17 87 1005.3
20260504043804 50 304 3.0 5.0 0.00 2.06 0.17 87 1005.4
20260504043305 50 291 5.0 9.0 0.00 2.06 0.17 87 1005.3
20260504043101 49 285 4.0 9.0 0.00 0.18 0.17 86 1005.2
20260504041804 49 249 2.0 3.0 0.00 2.06 0.17 87 1005.4
20260504041556 49 249 1.0 3.0 0.00 0.18 0.17 87 1005.3
20260504041304 49 249 1.0 3.0 0.00 2.06 0.17 87 1005.3
20260504040804 49 249 1.0 2.0 0.00 2.06 0.17 87 1005.3
20260504040304 49 249 1.0 2.0 0.00 2.06 0.17 87 1005.4
20260504040104 49 0 0.0 2.0 0.00 0.18 0.17 87 1005.3
20260504034804 49 249 2.0 3.0 0.01 2.06 0.17 87 1005.4
20260504034601 49 249 2.0 6.0 0.00 0.18 0.17 87 1005.2
20260504034305 49 249 3.0 6.0 0.01 2.06 0.17 87 1005.2
20260504033804 49 249 4.0 6.0 0.01 2.06 0.17 87 1005.2
20260504033305 49 271 4.0 6.0 0.01 2.06 0.17 87 1005.2
20260504033127 49 22 3.0 4.0 0.00 0.18 0.17 87 1005.1
20260504031804 49 22 0.0 2.0 0.01 2.07 0.17 87 1005.4
20260504031558 49 0 1.0 3.0 0.00 0.18 0.17 86 1005.5
20260504031304 49 22 2.0 3.0 0.01 2.07 0.17 87 1005.5
20260504030804 49 22 2.0 3.0 0.01 2.08 0.17 87 1005.5
20260504030059 49 22 2.0 5.0 0.00 0.18 0.17 86 1005.6
20260504024556 49 27 3.0 10.0 0.00 0.18 0.16 86 1005.8
20260504024304 49 19 6.0 9.0 0.01 2.08 0.17 87 1005.7
20260504023804 49 22 8.0 10.0 0.01 2.08 0.17 87 1005.8
20260504023104 49 24 8.0 12.0 0.00 0.18 0.16 86 1005.9
20260504021804 52 295 6.0 9.0 0.01 1.91 0.17 87 1005.8
20260504021557 52 296 6.0 9.0 0.00 0.18 0.16 86 1005.8
20260504021311 52 285 6.0 8.0 0.01 1.75 0.17 87 1005.8
20260504020804 52 281 4.0 8.0 0.01 1.76 0.17 87 1005.9
20260504020100 52 264 4.0 8.0 0.00 0.18 0.16 86 1005.9
20260504014804 52 266 4.0 7.0 0.01 1.75 0.16 87 1006.0
20260504014557 52 266 4.0 8.0 0.00 0.17 0.15 86 1005.9
20260504014305 52 266 6.0 8.0 0.02 1.75 0.16 87 1006.1
20260504013804 52 277 5.0 7.0 0.02 1.76 0.16 87 1006.1
20260504013109 52 279 3.0 8.0 0.01 0.17 0.15 86 1006.0
20260504011804 52 269 3.0 6.0 0.02 1.28 0.16 87 1006.1
20260504011556 52 269 4.0 8.0 0.02 0.17 0.15 86 1006.1
20260504011304 52 269 5.0 7.0 0.02 1.13 0.16 87 1006.2
20260504010804 52 269 5.0 8.0 0.16 0.97 0.16 87 1006.2
20260504010115 52 270 5.0 8.0 0.03 0.17 0.15 86 1006.1
20260504004624 52 265 4.0 8.0 0.03 0.16 0.14 86 1006.3
20260504004305 52 269 4.0 7.0 0.03 0.80 0.14 86 1006.4